Location: Clarks Summit,Pa.
(41.5000°N, 75.6000°W)
Time: 15:15:44
(UTC-05:00)

BlueWalker 3 - Pass Details

Date: 06 December 2022
Orbit: 499 x 517 km, 53.2° (Epoch: 29 January)

Event Time Altitude Azimuth Distance (km) Brightness Sun altitude
Rises 19:21:13 0° 309° (NW) 2,623 6.2 -30.8°
Reaches altitude 10° 19:23:26 10° 311° (NW) 1,730 5.1 -31.2°
Enters shadow 19:23:53 13° 312° (NW) 1,551 4.9 -31.3°
